Regional Weather Roundup
Issued by NWS

Home | Current Version | Previous Version | Graphics & Text | Print | Product List | Glossary On
Versions: 1 2 3 4 5 6 7 8 9 10 11 12 13 14 15 16 17 18 19 20 21 22 23 24 25 26 27 28 29 30 31 32 33 34 35 36 37 38 39 40 41 42 43 44 45 46 47 48 49 50
143
ASUS44 KMEG 161410
RWRTN
TENNESSEE HOURLY STATE WEATHER ROUNDUP
NATIONAL WEATHER SERVICE MEMPHIS TN
900 AM CDT MON OCT 16 2017

TNZ002-004-019-021-049-052-054-088>092-161500-
WEST TENNESSEE

CITY           SKY/WX    TMP DP  RH WIND       PRES   REMARKS
MEMPHIS INTL   MOSUNNY   54  44  69 NE12      30.36R
NWS MEMPHIS      N/A     52 N/A N/A MISG        N/A
JACKSON        SUNNY     52  45  77 NE13      30.36R
DYERSBURG      SUNNY     53  45  74 N9        30.38R
UNION CITY     SUNNY     50  45  81 N9        30.37R
PARIS          SUNNY     50  45  81 N6        30.35R
HUNTINGDON     SUNNY     52  45  76 VRB7G15   30.35R
$$

TNZ008-025-027-028-033-062-065-066-161500-
NORTH MIDDLE TENNESSEE

CITY           SKY/WX    TMP DP  RH WIND       PRES   REMARKS
NASHVILLE      MOSUNNY   54  44  69 N16       30.33R
PORTLAND       SUNNY     52  45  76 N12       30.32S
CLARKSVILLE    SUNNY     51  44  77 N15       30.35R
SMYRNA         MOSUNNY   54  45  71 N12       30.33R
CROSSVILLE     MOSUNNY   50  39  66 NE14G22   30.27R
$$

TNZ061-075-076-078-094-096-097-161500-
SOUTH MIDDLE TENNESSEE

CITY           SKY/WX    TMP DP  RH WIND       PRES   REMARKS
TULLAHOMA      SUNNY     52  41  66 N12       30.28R
WINCHESTER     SUNNY     52  43  71 N10         N/A
MCMINNVILLE    SUNNY     54  45  71 N14       30.28R
COLUMBIA       SUNNY     52  45  76 N10       30.30R
SHELBYVILLE    SUNNY     54  45  71 N12G21    30.29S
$$

TNZ017-018-042-046-047-161500-
NORTHEAST TENNESSEE

CITY           SKY/WX    TMP DP  RH WIND       PRES   REMARKS
TRI CITIES     CLOUDY    53  45  74 N5        30.23R
ELIZABETHTON   CLOUDY    52  45  76 VRB3      30.23R
$$

TNZ012-013-036-069-073-074-161500-
CENTRAL EAST TENNESSEE

CITY           SKY/WX    TMP DP  RH WIND       PRES   REMARKS
KNOXVILLE      PTSUNNY   53  47  79 N9        30.25R
OAK RIDGE      MOSUNNY   55  44  66 VRB5      30.27R
GATLINBURG     CLOUDY    54  48  82 NW5       30.25R
MORRISTOWN     CLOUDY    54  43  66 NE9       30.24R
JACKSBORO      CLOUDY    54  43  66 NE10G16   30.30R
$$

TNZ083-085-099-161500-
SOUTHEAST TENNESSEE

CITY           SKY/WX    TMP DP  RH WIND       PRES   REMARKS
CHATTANOOGA    PTSUNNY   54  43  66 N16G22    30.25R
DAYTON         PTSUNNY   52  46  82 N9        30.25S
$$

SKY/WX REPORTED AS FAIR MEANS FEW OR NO CLOUDS BELOW
12 THOUSAND FEET.





USA.gov is the U.S. government's official web portal to all federal, state and local government web resources and services.